[[{"header":{"parameterUnit":"m.s-1","parameterCategory":1,"la1":30.2991,"la2":30.254,"lo1":-89.0895,"lo2":-89.0444,"dy":0.0017,"dx":0.0017,"nx":28,"ny":28,"refTime":"2024-05-13T09:00:00:Z","depth":0,"parameterNumber":2,"parameterNumberName":"U-component_of_WINDS"},"data":[0,0,0,0,0,0,0,0,0,0,0,0,0,0,0,0,0,0,0,0,0,0,0,0,0,0,0,0,0,0,0,0,0,0,0,0,0,0,0,0,0,0,0,0,0,0,0,0,0,0,0,0,0,0,0,0,0,0,4.0789,4.079,0,4.0882,4.0883,4.0884,4.0803,4.0799,4.0796,4.0793,4.089,4.0896,4.0902,0,0,0,0,0,0,0,0,0,0,0,0,0,4.0543,4.0548,4.0789,4.079,4.0791,4.0882,4.0883,4.0884,4.0803,4.0799,4.0795,4.0791,4.0889,4.0895,4.0902,0,0,0,0,0,0,0,0,0,0,0,0,0,4.0645,4.055,4.0789,4.0762,4.076,4.0881,4.0883,4.0884,4.0804,4.0799,4.0794,4.079,4.0886,4.0895,4.0903,4.1056,0,0,4.0929,4.0933,0,0,0,0,0,0,0,0,4.0639,4.0654,4.0765,4.0764,4.0763,4.0826,4.0832,4.0942,4.0806,4.0788,4.0793,4.0787,4.0873,4.0882,4.0911,4.1061,4.1065,4.093,4.0935,4.0939,4.0941,0,0,0,0,0,0,0,4.0632,4.0649,4.0826,4.0767,4.0765,4.0746,4.0754,4.0852,4.0858,4.0789,4.0783,4.0795,4.0872,4.0903,4.0913,4.1066,4.093,4.0937,4.0943,4.0946,4.1345,4.135,0,0,0,0,0,0,4.0628,4.0644,4.0823,4.0829,4.0687,4.0754,4.0764,4.081,4.0856,4.0858,4.0799,4.0791,4.0891,4.0903,4.0916,4.1097,4.0939,4.0947,4.0952,4.1339,4.1346,4.1352,0,0,0,0,0,0,4.0623,4.0644,4.0819,4.0735,4.0756,4.0764,4.0817,4.0815,4.0846,4.0864,4.0865,4.083,4.0887,4.0904,4.1021,4.1099,4.0951,4.0959,4.1333,4.1341,4.1349,4.1461,0,0,0,0,0,0,4.0616,4.0643,4.0701,4.0737,4.076,4.0923,4.0821,4.082,4.0861,4.0851,4.0893,4.0896,4.0885,4.1009,4.103,4.1108,4.0965,4.1326,4.1337,4.1346,4.145,4.1472,4.149,0,0,0,0,0,4.0608,4.073,4.0705,4.0727,4.0833,4.0928,4.0941,4.0926,4.0867,4.0926,4.0937,4.0894,4.1087,4.1022,4.1044,4.1127,4.1321,4.1333,4.1345,4.1441,4.1467,4.149,0,0,0,0,0,0,4.0705,4.0734,4.0706,4.0844,4.0884,4.0914,4.0987,4.0954,4.1012,4.1001,4.0979,4.0989,4.1113,4.1132,4.1058,4.1276,4.1195,4.1212,4.126,4.1285,4.1304,4.1297,4.0972,0,0,0,0,0,4.0742,4.0816,4.0838,4.0958,4.0979,4.098,4.1021,4.1005,4.1045,4.1062,4.1082,4.1124,4.1193,4.124,4.1306,4.1452,4.146,4.152,4.154,4.1556,4.1571,4.1649,4.1675,4.1392,4.1392,4.1392,0,0,4.0821,4.0846,4.0894,4.0978,4.1007,4.1084,4.0995,4.1081,4.1138,4.1076,4.1187,4.1203,4.1248,4.1381,4.144,4.14,4.1651,4.1572,4.1585,4.1591,4.1664,4.1691,4.1715,4.14,4.1399,4.1397,0,0,4.1003,4.1029,4.1131,4.1161,4.1206,4.1205,4.123,4.1265,4.1272,4.1384,4.1338,4.1406,4.1527,4.1561,4.1594,4.1786,4.1748,4.1808,4.1913,4.1988,4.2011,4.203,4.2098,4.2123,4.1823,4.1824,4.1824,0,4.1095,4.1208,4.1188,4.1276,4.1314,4.126,4.1362,4.1393,4.1457,4.1485,4.1438,4.1587,4.1614,4.1753,4.18,4.1829,4.1855,4.1803,4.2009,4.2029,4.2047,4.2111,4.2137,4.183,4.183,4.1829,4.1828,0,4.1319,4.1398,4.1475,4.1537,4.1583,4.1679,4.1672,4.1721,4.1701,4.1706,4.1819,4.1849,4.1918,4.195,4.1932,4.2086,4.206,4.2012,4.1929,4.2081,4.2141,4.2165,4.184,4.1838,4.1836,4.1834,0,0,4.1566,4.1613,4.1642,4.1668,4.1712,4.1774,4.1866,4.1933,4.1975,4.2021,4.2098,4.22,4.2155,4.2193,4.2178,4.2244,4.2393,4.2188,4.2189,4.2224,4.2564,4.2599,4.2628,4.2368,4.2373,4.2377,4.2559,0,4.1749,4.1908,4.1892,4.2044,4.2116,4.2065,4.2145,4.2181,4.2187,4.225,4.2257,4.233,4.2266,4.2288,4.2351,4.2362,4.2461,4.2348,4.2439,4.2443,4.2429,4.2659,4.2697,4.2868,4.2583,4.2587,4.259,0,4.1984,4.2036,4.2195,4.2226,4.2256,4.2329,4.2387,4.2448,4.2487,4.2487,4.2528,4.2501,4.2593,4.2509,4.2635,4.2559,4.2595,4.2606,4.2612,4.262,4.2525,4.2673,4.2923,4.2948,4.2627,4.2624,4.2621,0,4.2147,4.2257,4.2366,4.2391,4.243,4.2482,4.2501,4.2535,4.2576,4.2627,4.2653,4.2716,4.275,4.2799,4.2789,4.2728,4.2918,4.2833,4.292,4.292,4.2962,4.296,4.3221,4.2987,4.2986,4.2986,4.2985,0,4.2353,4.2452,4.244,4.2507,4.2616,4.2595,4.2704,4.2716,4.2747,4.2815,4.2775,4.284,4.2823,4.2888,4.2881,4.2986,4.3002,4.3004,4.3001,4.3008,4.3007,4.3031,4.3019,4.2993,4.2991,4.299,4.2989,0,4.2554,4.255,4.2665,4.2692,4.2701,4.278,4.2803,4.2866,4.2868,4.2955,4.2975,4.2979,4.3052,4.3047,4.3131,4.3126,4.3255,4.3239,4.3242,4.3238,4.3325,4.3317,4.361,4.3647,4.339,4.3392,4.3394,0,4.2686,4.276,4.2795,4.2837,4.2859,4.2928,4.2969,4.2951,4.2995,4.3044,4.3101,4.317,4.3225,4.3345,4.3355,4.3419,4.3403,4.3501,4.3412,4.3416,4.3403,4.3398,4.3405,4.3519,4.3522,4.3524,4.3526,0,4.2919,4.2913,4.2972,4.3031,4.308,4.3126,4.3168,4.3205,4.3191,4.3242,4.3316,4.3359,4.3442,4.3512,4.3572,4.3591,4.3557,4.3554,4.3577,4.3584,4.3583,4.3583,4.3289,4.3547,4.3545,4.3544,4.3542,4.3542,4.3089,4.3152,4.3186,4.3253,4.3282,4.3321,4.3381,4.339,4.3451,4.3517,4.3503,4.3586,4.3621,4.3697,4.3723,4.3787,4.3752,4.3786,4.3795,4.3803,4.3812,4.3573,4.3798,4.3798,4.3797,4.3797,4.3796,0,4.332,4.3338,4.34,4.3458,4.3511,4.3472,4.3516,4.3563,4.3636,4.3671,4.3725,4.3809,4.3876,4.3891,4.3954,4.4003,4.3989,4.402,4.4016,4.4021,4.3841,4.3814,4.4031,4.4031,4.4031,4.4031,4.4031,4.403,4.3446,4.355,4.3547,4.3665,4.3683,4.3763,4.3791,4.3827,4.3854,4.395,4.4004,4.4013,4.404,4.4105,4.4164,4.4167,4.4192,4.4229,4.4226,4.4058,4.4034,4.4012,4.3986,4.4235,4.4236,4.44,4.4402,4.4403]},{"header":{"parameterUnit":"m.s-1","parameterCategory":1,"la1":30.2991,"la2":30.254,"lo1":-89.0895,"lo2":-89.0444,"dy":0.0017,"dx":0.0017,"nx":28,"ny":28,"refTime":"2024-05-13T09:00:00:Z","depth":0,"parameterNumber":3,"parameterNumberName":"V-component_of_WINDS"},"data":[0,0,0,0,0,0,0,0,0,0,0,0,0,0,0,0,0,0,0,0,0,0,0,0,0,0,0,0,0,0,0,0,0,0,0,0,0,0,0,0,0,0,0,0,0,0,0,0,0,0,0,0,0,0,0,0,0,0,0.2341,0.2341,0,0.235,0.235,0.235,0.2354,0.2354,0.2354,0.2353,0.2363,0.2363,0.2363,0,0,0,0,0,0,0,0,0,0,0,0,0,0.2324,0.2324,0.2341,0.2341,0.2341,0.235,0.235,0.2351,0.2354,0.2354,0.2354,0.2353,0.2363,0.2363,0.2363,0,0,0,0,0,0,0,0,0,0,0,0,0,0.2332,0.2325,0.2341,0.2344,0.2344,0.235,0.235,0.2351,0.2354,0.2354,0.2354,0.2353,0.2362,0.2363,0.2363,0.2367,0,0,0.2365,0.2365,0,0,0,0,0,0,0,0,0.2332,0.2333,0.2343,0.2344,0.2344,0.2351,0.2348,0.2356,0.2354,0.235,0.2353,0.2353,0.2359,0.2359,0.2361,0.2368,0.2368,0.2365,0.2365,0.2365,0.2365,0,0,0,0,0,0,0,0.2331,0.2332,0.2345,0.2343,0.2344,0.2344,0.2345,0.2349,0.2355,0.235,0.2351,0.2352,0.2359,0.2361,0.2362,0.2368,0.2365,0.2365,0.2365,0.2365,0.2377,0.2377,0,0,0,0,0,0,0.233,0.2332,0.2344,0.2345,0.2338,0.2344,0.2346,0.2349,0.2355,0.2355,0.2352,0.2352,0.236,0.2361,0.2362,0.2366,0.2365,0.2365,0.2366,0.2377,0.2377,0.2377,0,0,0,0,0,0,0.233,0.2331,0.2344,0.2338,0.234,0.2345,0.2348,0.2349,0.2351,0.2356,0.2356,0.2353,0.236,0.2361,0.2366,0.2367,0.2366,0.2366,0.2377,0.2377,0.2377,0.2375,0,0,0,0,0,0,0.2329,0.2331,0.2333,0.2339,0.234,0.2348,0.2348,0.2349,0.2352,0.2352,0.2357,0.2358,0.236,0.2365,0.2366,0.2367,0.2366,0.2376,0.2377,0.2377,0.2375,0.2375,0.2375,0,0,0,0,0,0.2329,0.2332,0.2333,0.2335,0.2343,0.2348,0.2349,0.2352,0.2352,0.2353,0.2356,0.2358,0.2366,0.2365,0.2367,0.2368,0.2376,0.2377,0.2377,0.2375,0.2375,0.2375,0,0,0,0,0,0,0.2327,0.2333,0.2334,0.234,0.2343,0.2348,0.2351,0.2352,0.2356,0.2356,0.2359,0.236,0.2364,0.2366,0.2365,0.2371,0.2371,0.2372,0.237,0.237,0.237,0.2369,0.2367,0,0,0,0,0,0.2328,0.2331,0.2336,0.2341,0.2342,0.2346,0.2348,0.235,0.2354,0.2356,0.2359,0.2362,0.2365,0.2368,0.2371,0.2375,0.2376,0.2377,0.2377,0.2377,0.2377,0.2378,0.2379,0.2377,0.2377,0.2377,0,0,0.2328,0.2332,0.2334,0.234,0.2343,0.2347,0.2347,0.2351,0.2354,0.2356,0.236,0.2363,0.2366,0.237,0.2372,0.2373,0.2377,0.2377,0.2377,0.2377,0.2378,0.2379,0.2379,0.2377,0.2377,0.2377,0,0,0.2331,0.2335,0.2338,0.2341,0.2345,0.2348,0.2348,0.2353,0.2355,0.2359,0.236,0.2363,0.2369,0.2372,0.2374,0.2376,0.2377,0.2377,0.2377,0.2378,0.2379,0.2379,0.2379,0.2379,0.2377,0.2377,0.2377,0,0.2332,0.2337,0.234,0.2343,0.2346,0.2348,0.2351,0.2353,0.2359,0.236,0.236,0.2367,0.237,0.2374,0.2374,0.2376,0.2376,0.2377,0.2378,0.2379,0.2379,0.2379,0.2379,0.2377,0.2377,0.2377,0.2377,0,0.2337,0.2341,0.2343,0.2348,0.235,0.2354,0.2356,0.2358,0.236,0.2362,0.2365,0.2369,0.2372,0.2373,0.2375,0.2377,0.2377,0.2378,0.2378,0.2379,0.2379,0.2379,0.2377,0.2377,0.2377,0.2377,0,0,0.234,0.2346,0.2346,0.2348,0.2352,0.2355,0.2358,0.2362,0.2363,0.2366,0.2369,0.2373,0.2373,0.2375,0.2377,0.2378,0.2379,0.2378,0.2378,0.2378,0.2381,0.2381,0.2381,0.2379,0.238,0.238,0.2381,0,0.2344,0.235,0.2351,0.2356,0.2359,0.236,0.2363,0.2365,0.2367,0.2369,0.2371,0.2374,0.2374,0.2375,0.2377,0.2379,0.238,0.2379,0.2381,0.2381,0.238,0.2381,0.2381,0.2382,0.2381,0.2381,0.2381,0,0.2349,0.2352,0.2357,0.2359,0.2361,0.2363,0.2366,0.2368,0.2371,0.2372,0.2374,0.2375,0.2377,0.2377,0.238,0.2379,0.238,0.2381,0.2381,0.2382,0.2381,0.2382,0.2383,0.2383,0.2382,0.2381,0.2381,0,0.235,0.2355,0.2359,0.236,0.2364,0.2365,0.2367,0.2369,0.2371,0.2373,0.2374,0.2376,0.2378,0.2379,0.2381,0.2381,0.2384,0.2384,0.2384,0.2384,0.2385,0.2385,0.2386,0.2386,0.2386,0.2386,0.2386,0,0.2354,0.2357,0.2359,0.2361,0.2364,0.2366,0.2369,0.237,0.2372,0.2374,0.2375,0.2377,0.2379,0.238,0.2381,0.2383,0.2384,0.2384,0.2385,0.2384,0.2384,0.2385,0.2385,0.2386,0.2386,0.2386,0.2386,0,0.2357,0.2358,0.2362,0.2365,0.2365,0.2367,0.2369,0.2371,0.2372,0.2375,0.2375,0.2377,0.2379,0.2381,0.2383,0.2384,0.2386,0.2386,0.2385,0.2385,0.2386,0.2386,0.2388,0.2388,0.2387,0.2387,0.2387,0,0.2359,0.2361,0.2364,0.2365,0.2367,0.2369,0.237,0.2372,0.2373,0.2375,0.2376,0.2378,0.238,0.2383,0.2384,0.2386,0.2386,0.2387,0.2387,0.2386,0.2386,0.2386,0.2386,0.2387,0.2387,0.2387,0.2387,0,0.2363,0.2363,0.2365,0.2368,0.2369,0.2371,0.2373,0.2374,0.2375,0.2377,0.2378,0.238,0.2382,0.2384,0.2385,0.2386,0.2387,0.2387,0.2387,0.2387,0.2386,0.2386,0.2385,0.2387,0.2387,0.2387,0.2387,0.2387,0.2365,0.2367,0.2369,0.2371,0.2372,0.2373,0.2375,0.2376,0.2377,0.2379,0.238,0.2382,0.2383,0.2385,0.2386,0.2387,0.2387,0.2388,0.2388,0.2388,0.2387,0.2386,0.2388,0.2388,0.2388,0.2388,0.2388,0,0.2369,0.237,0.2372,0.2374,0.2375,0.2375,0.2377,0.2378,0.2379,0.2381,0.2382,0.2384,0.2385,0.2386,0.2387,0.2388,0.2388,0.2388,0.2388,0.2388,0.2388,0.2387,0.2388,0.2388,0.2388,0.2388,0.2388,0.2388,0.2371,0.2373,0.2374,0.2376,0.2377,0.2379,0.238,0.2381,0.2382,0.2383,0.2384,0.2385,0.2386,0.2387,0.2388,0.2388,0.2388,0.2388,0.2389,0.2388,0.2388,0.2388,0.2388,0.2389,0.2389,0.2389,0.2389,0.2389]}]]